Weather History for KINS - February, 2013

Change the Weather History Date:

Friday, February 8, 2013

  Actual Average (KDRA) Record (KDRA)
Temperature  
Mean Temperature 44 °F -  
Max Temperature 51 °F 54 °F 73 °F (2006)
Min Temperature 36 °F 33 °F 27 °F (2003)
Degree Days  
Heating Degree Days 21    
Moisture  
Dew Point 21 °F    
Average Humidity 42    
Maximum Humidity 65    
Minimum Humidity 29    
Precipitation  
Precipitation 0.00 in - - ()
Sea Level Pressure  
Sea Level Pressure 29.69 in    
Wind  
Wind Speed 14 mph (WSW)    
Max Wind Speed 26 mph    
Max Gust Speed 37 mph    
Visibility 10 miles    
Events Rain    
Averages and records for this station are not official NWS values.
T = Trace of Precipitation, MM = Missing Value Source: NWS Daily Summary

Daily Weather History Graph

Daily Weather History Graph

Search for Another Location

Airport or City:

Trip Planner

Search our weather history database for the weather conditions in past years. The results will help you decide how hot, cold, wet, or windy it might be!

Date:

Astronomy

Feb. 08, 2013 Rise Set
Actual Time 6:37 AM PST 5:16 PM PST
Civil Twilight 6:11 AM PST 5:43 PM PST
Nautical Twilight 5:40 AM PST 6:13 PM PST
Astronomical Twilight 5:10 AM PST 6:43 PM PST
Moon 5:08 AM PST (2/8) 3:55 PM PST (2/8)
Length of Visible Light 11h 32m
Length of Day
10h 38m
Waning Crescent, 3% of the Moon is Illuminated
Feb 8
Waning Crescent
Feb 9
New
Feb 17
First Quarter
Feb 25
Full
Mar 4
Last Quarter

Hourly Weather History & Observations

Time (PST) Temp. Windchill Dew Point Humidity Pressure Visibility Wind Dir Wind Speed Gust Speed Precip Events Conditions
12:58 AM 51.1 °F - 19.6 °F 29% 29.72 in 10.0 mi North 5.8 mph - N/A   Mostly Cloudy
1:58 AM 48.4 °F - 21.0 °F 34% 29.70 in 10.0 mi NNE 6.9 mph - N/A   Partly Cloudy
2:58 AM 48.7 °F - 19.6 °F 32% 29.67 in 10.0 mi WNW 5.8 mph - N/A   Partly Cloudy
3:55 AM 46.4 °F 38.5 °F 23.0 °F 40% 29.68 in 10.0 mi WSW 21.9 mph 28.8 mph N/A   Mostly Cloudy
3:58 AM 46.9 °F - 23.5 °F 40% 29.69 in 10.0 mi SW 17.3 mph 28.8 mph N/A   Mostly Cloudy
4:11 AM 46.4 °F 38.7 °F 21.2 °F 37% 29.65 in 10.0 mi ESE 20.7 mph 29.9 mph N/A   Mostly Cloudy
4:16 AM 46.4 °F 38.3 °F 19.4 °F 34% 29.65 in 10.0 mi SSE 23.0 mph 36.8 mph N/A   Scattered Clouds
4:17 AM 46.4 °F 39.8 °F 19.4 °F 34% 29.65 in 10.0 mi SSE 16.1 mph 36.8 mph N/A   Scattered Clouds
4:19 AM 48.2 °F - 19.4 °F 32% 29.65 in 10.0 mi South 12.7 mph 36.8 mph N/A   Scattered Clouds
4:39 AM 48.2 °F - 19.4 °F 32% 29.66 in 10.0 mi South 20.7 mph 28.8 mph N/A   Scattered Clouds
4:43 AM 48.2 °F - 19.4 °F 32% 29.66 in 10.0 mi SSE 18.4 mph 28.8 mph N/A   Scattered Clouds
4:44 AM 48.2 °F - 19.4 °F 32% 29.66 in 10.0 mi SE 13.8 mph 28.8 mph N/A   Scattered Clouds
4:58 AM 46.4 °F - 16.9 °F 31% 29.66 in 10.0 mi NNE 1.2 mph - N/A   Partly Cloudy
5:31 AM 44.6 °F 38.1 °F 15.8 °F 31% 29.66 in 10.0 mi WNW 13.8 mph 27.6 mph N/A   Clear
5:58 AM 42.6 °F 39.0 °F 17.6 °F 37% 29.66 in 10.0 mi NNE 5.8 mph 16.1 mph N/A   Clear
6:58 AM 41.2 °F 35.0 °F 17.1 °F 38% 29.66 in 10.0 mi SW 10.4 mph - N/A   Clear
7:58 AM 44.6 °F 35.3 °F 17.4 °F 34% 29.67 in 10.0 mi SW 26.5 mph - N/A   Clear
8:53 AM 46.4 °F 40.7 °F 17.6 °F 32% 29.70 in 10.0 mi WSW 12.7 mph - N/A   Mostly Cloudy
8:58 AM 46.4 °F 40.4 °F 18.0 °F 32% 29.70 in 10.0 mi WSW 13.8 mph - N/A   Mostly Cloudy
9:58 AM 44.6 °F 36.1 °F 18.3 °F 35% 29.71 in 10.0 mi SW 21.9 mph - N/A   Clear
10:58 AM 45.1 °F 37.1 °F 18.0 °F 34% 29.71 in 10.0 mi SW 20.7 mph 32.2 mph N/A   Partly Cloudy
11:35 AM 46.4 °F 40.4 °F 15.8 °F 29% 29.71 in 10.0 mi West 13.8 mph 27.6 mph N/A   Mostly Cloudy
11:58 AM 46.0 °F 40.2 °F 18.0 °F 33% 29.70 in 10.0 mi WSW 12.7 mph 24.2 mph N/A   Mostly Cloudy
12:58 PM 45.9 °F 37.4 °F 24.1 °F 42% 29.68 in 10.0 mi West 24.2 mph 29.9 mph N/A   Mostly Cloudy
1:48 PM 41.0 °F 30.5 °F 26.6 °F 57% 29.70 in 10.0 mi West 26.5 mph - N/A   Light Drizzle
1:50 PM 41.0 °F 30.7 °F 26.6 °F 57% 29.70 in 10.0 mi West 25.3 mph - N/A   Light Drizzle
1:58 PM 41.7 °F 31.6 °F 27.9 °F 58% 29.71 in 10.0 mi West 25.3 mph - 0.00 in Rain Light Rain
2:02 PM 41.0 °F 31.6 °F 26.6 °F 57% 29.72 in 10.0 mi WSW 20.7 mph - N/A   Overcast
2:58 PM 41.4 °F 32.1 °F 26.6 °F 56% 29.72 in 10.0 mi West 20.7 mph - 0.00 in   Overcast
3:58 PM 42.6 °F 34.9 °F 25.9 °F 52% 29.72 in 10.0 mi West 16.1 mph - N/A   Partly Cloudy
4:58 PM 42.3 °F 34.8 °F 21.9 °F 44% 29.71 in 10.0 mi West 15.0 mph - N/A   Clear
5:58 PM 41.0 °F 33.1 °F 21.9 °F 47% 29.73 in 10.0 mi West 15.0 mph - N/A   Mostly Cloudy
6:58 PM 38.3 °F 30.9 °F 25.3 °F 60% 29.74 in 10.0 mi NNW 11.5 mph - N/A   Mostly Cloudy
7:58 PM 38.5 °F - 26.2 °F 61% 29.74 in 10.0 mi Calm Calm - N/A   Overcast
8:58 PM 38.7 °F 33.6 °F 26.4 °F 61% 29.74 in 10.0 mi WSW 6.9 mph - N/A   Overcast
9:58 PM 37.2 °F 28.7 °F 25.7 °F 63% 29.72 in 10.0 mi WSW 13.8 mph - N/A   Partly Cloudy
10:58 PM 37.2 °F 27.9 °F 23.9 °F 59% 29.72 in 10.0 mi West 16.1 mph - N/A   Mostly Cloudy
11:58 PM 36.9 °F 26.8 °F 26.2 °F 65% 29.72 in 10.0 mi West 18.4 mph - N/A   Partly Cloudy